Regional Weather Roundup
Issued by NWS San Diego, CA

Home | Current Version | Previous Version | Text Only | Print | Product List | Glossary On
Versions: 1 2 3 4 5 6 7 8 9 10 11 12 13 14 15 16 17 18 19 20 21 22 23 24 25 26 27 28 29 30 31 32 33 34 35 36 37 38 39 40 41 42 43 44 45 46 47 48 49 50
000
ASUS46 KSGX 251510
RWRSGX

SAN DIEGO HOURLY WEATHER ROUNDUP
NATIONAL WEATHER SERVICE SAN DIEGO CA
700 AM PST THU DEC 25 2014

NOTE: "FAIR" INDICATES FEW OR NO CLOUDS BELOW 12,000 FEET WITH NO
SIGNIFICANT WEATHER AND/OR OBSTRUCTIONS TO VISIBILITY.

CAZ042-043-060-061-PZZ750-775-251600-

GREATER SAN DIEGO AREA

CITY           SKY/WX    TMP DP  RH WIND       PRES   REMARKS
LINDBERGH FLD  MOCLDY    60  49  66 SW5       29.83S
POINT LOMA       N/A     57  48  72 W9          N/A
NATIONAL CITY    N/A     59  52  77 CALM      29.83S
CHULA VISTA      N/A     58  52  81 CALM      29.76S
IMPERIAL BEACH CLOUDY    58  51  78 W9        29.83F
BROWN FIELD    PTCLDY    52  48  86 SW5       29.82F
MIRAMAR MCAS   PTCLDY    54  48  80 S5        29.81S
MONTGOMERY FLD CLEAR     55  49  80 E3        29.82S

$$

NORTH SAN DIEGO COUNTY

CITY           SKY/WX    TMP DP  RH WIND       PRES   REMARKS
CAMP PENDLETON PTCLDY    50  46  86 NE5       29.81R FOG
OCEANSIDE AP   CLEAR     51  49  92 CALM      29.80R
OCEANSIDE HBR    N/A     59  52  78 SW3       29.83R
VISTA            N/A     53  49  86 CALM      29.79R
CARLSBAD       CLEAR     55  50  83 SE3       29.80R
DEL MAR          N/A     56  52  87 CALM      29.84R
LA JOLLA SCRIP   N/A     58  53  82 CALM      29.79
FALLBROOK        N/A     53  53 100 CALM      29.82R
ESCONDIDO        N/A     55  52  89 CALM      29.82S
SAN MARCOS       N/A     55  51  87 CALM      29.79S
POWAY            N/A     53  49  86 CALM      29.83F

$$

EAST SAN DIEGO COUNTY

CITY           SKY/WX    TMP DP  RH WIND       PRES   REMARKS
RAMONA         MOCLDY    50  48  93 SW5       29.81S
SANTEE LAKES     N/A     54  49  86 CALM      29.83S
LA MESA          N/A     55  50  81 CALM      29.75F
JAMUL            N/A     52  50  93 CALM      29.81F
MT. LAGUNA OBS   N/A     36  36 100 W25       29.41S WCI  24
CAMPO            N/A     48  45  89 SW7G17    29.78R

$$

ORANGE COUNTY AND THE LOS ANGELES BASIN

CITY           SKY/WX    TMP DP  RH WIND       PRES   REMARKS
JOHN WAYNE AP  PTCLDY    57  35  43 N3        29.81R
LAGUNA BEACH     N/A     54  52  93 N3        29.77R
LAKE FOREST FR   N/A     51  47  86 CALM      29.72R
SANTA ANA        N/A     49  46  88 CALM      29.77R
HUNTINGTON BCH   N/A     51  40  64 NW3       29.84R
LOS ALAMITOS   FAIR      51  36  57 CALM      29.82R
FULLERTON      CLEAR     50  38  63 CALM      29.81R
LONG BEACH     CLEAR     52  34  50 NW9       29.81R
L.A. AP        PTCLDY    54  29  38 NW15G21   29.83R
L.A. DOWNTOWN  CLEAR     54  28  36 N7        29.81S

$$

THE INLAND EMPIRE

CITY           SKY/WX    TMP DP  RH WIND       PRES   REMARKS
CORONA         PTCLDY    54  44  68 CALM      29.81R
CHINO          PTCLDY    48  39  71 CALM      29.82R
ONTARIO        PTCLDY    49  42  77 W12       29.80R
SAN BERNARDINO PTCLDY    50  23  34 NE9       29.81
RIVERSIDE AP   PTCLDY    54  28  36 E9G18     29.80S
RIV CYN CREST    N/A     53  37  55 E7          N/A
MORENO VALLEY    N/A     50  33  53 E2          N/A
MARCH ARB      PTCLDY    46  32  57 N8        29.81R
HORSETHIEF CYN   N/A     49  40  71 S3        29.80R
PERRIS           N/A     49  46  86 S2        29.81R
MENIFEE          N/A     49  48  97 CALM      29.87R
HEMET EAST       N/A     51  46  81 CALM      29.79S
FRENCH VALLEY  PTSUNNY   50  50 100 CALM      29.82R
TEMECULA         N/A     54  52  95 CALM      29.78S

$$

SAN BERNARDINO AND RIVERSIDE COUNTY MOUNTAINS

CITY           SKY/WX    TMP DP  RH WIND       PRES   REMARKS
BIG BEAR AP    CLEAR     28  12  50 W6        29.82R WCI  22
ANGELUS OAKS     N/A     35  11  37 E2        29.70F
PINE COVE        N/A     34  34  99 N10       29.74R WCI  26

$$

SOUTHERN DESERT INCLUDING THE COACHELLA VALLEY

CITY           SKY/WX    TMP DP  RH WIND       PRES   REMARKS
PALM SPRINGS   CLEAR     52  35  52 E6        29.75R
THOUSAND PALMS   N/A     51  29  43 NE1       29.71R
PALM DESERT      N/A     48  32  54 E3        29.99S
THERMAL        CLEAR     42  28  57 W6        29.74R
BLYTHE         PTCLDY    46  23  40 N3        29.76R
IMPERIAL AP    CLOUDY    59  41  51 SW9       29.73R
EL CENTRO NAS  PTCLDY    58  39  49 CALM      29.73R
YUMA AZ        PTCLDY    50  30  46 N3        29.74R
MEXICALI         N/A    N/A N/A N/A MISG        N/A

$$

UPPER DESERT

CITY           SKY/WX    TMP DP  RH WIND       PRES   REMARKS
VICTORVILLE AP   N/A     37  30  75 NW13      29.87S WCI  29
HESPERIA         N/A     37  30  75 CALM      29.99R
PALMDALE       CLEAR     39  27  62 W13       29.89R WCI  31
LANCASTER      CLEAR     41  25  53 W16G25    29.90R
EDWARDS AFB    CLEAR     47  26  44 NW15G32   29.83S
DAGGETT        CLOUDY    47  27  45 W15       29.86R
29 PALMS N     CLEAR     45  29  53 NW17G24   29.88R
NEEDLES        PTCLDY    54  22  28 NW12      29.73R

$$

REGIONAL REPORTS

CITY           SKY/WX    TMP DP  RH WIND       PRES   REMARKS
SANTA BARBARA  CLEAR     56  22  26 N12       29.86R
SANDBERG       CLEAR     31  23  72 MISG      29.84R
MT. WILSON       N/A     28  21  74 MISG        N/A
LAS VEGAS NV   PTCLDY    48  18  30 NW22G30   29.73R
PHOENIX AZ     MOCLDY    46  31  55 W3        29.73R
TIJUANA        PTCLDY    55  46  71 SW5       29.85
ENSENADA NW      N/A     59  32  36 W10       29.84R

$$

OFFSHORE ISLANDS

CITY           SKY/WX    TMP DP  RH WIND       PRES   REMARKS
CATALINA ARPT  PTCLDY    51  36  56 N15       29.84R
SAN NICOLAS IS CLEAR    N/A N/A N/A NW24      29.84F

$$

MARINE AND OFFSHORE BUOY REPORTS

STATION/POSITION SKY/WX   TEMP    WIND        PRES    SWELL
                          AIR SEA DIR/SP/G            HT/PER/DIR
                          (F)     (DEG/KT/KT) (MB)    (FT/S/D)
TANNER BANKS               60 63  320/ 27/ 33 1011.3R  11/310/16
S CLEMENTE BASIN           60 65  310/ 14/ 17 1009.9R   8/300/16
SAN NICOLAS IS.               62                N/A     8/300/11
SO. S. ROSA ISLA           56 61  320/ 31/ 39 1010.9R  10/11
W. S. BARBARA CH           55 62  340/ 27/ 33 1012.6R  11/310/14
S. MONICA BASIN            60 63  320/ 17/ 21 1010.5R   3/260/16
S PEDRO CHANNEL               64                N/A     3/270/17
DANA POINT                    64                N/A     3/270/17
CMP PENDLETON NS              64                N/A     2/240/17
OCEANSIDE OFFSHR              64                N/A     3/260/17
TORREY PINES OTR              64                N/A     3/260/14
LA JOLLA 1                 60 63  190/  5/  6 1009.5R
MISSION BAY BUOY              64                N/A     3/270/17
SAN DIEGO BAY                 64              1010.1S
POINT LOMA SOUTH              65                N/A     5/270/17

$$



USA.gov is the U.S. government's official web portal to all federal, state and local government web resources and services.